View from above orbital plane
|
View from above satellite
|
Ground track
|
The orbit data is extracted from the following two-line orbital elements,
1 43897U 18111X 21020.43039962 .00000379 00000-0 18109-4 0 9996
2 43897 97.2470 278.9229 0024238 102.0707 13.1010 15.24540774115043
Epoch (UTC): | 20 January 2021 10:19:46 |
Eccentricity: | 0.0024238 |
inclination: | 97.2470° |
perigee height: | 475 km |
apogee height: | 509 km |
right ascension of ascending node: | 278.9229° |
argument of perigee: | 102.0707° |
revolutions per day: | 15.24540774 |
mean anomaly at epoch: | 13.1010° |
orbit number at epoch: | 11504 |
The dashed part of the orbit path shows where the satellite is in the earth's shadow,
|
|